Weather in Luxor

Egypt     25°42′22″N   32°37′51″E
temp.,
°C
wind,
m/s
gust,
m/s
humid.,
%
clouds,
%
prec.,
mm/h
press.,
hPa
HPBL,
m
26 june, sun
sun2623:00+33nnw611170 0.0 1006267
02:00+30nw33200 0.0 100733
05:00+28nw23240 0.0 100822
08:00+31nnw34230 0.0 1009688
11:00+36nw55160 0.0 10081619
14:00+40nw7670 0.0 10062060
17:00+39nw7770 0.0 10052136
20:00+34wnw712110 0.0 1006215
27 june, mon
mon2723:00+31nw47160 0.0 1007100
02:00+28nnw22200 0.0 100714
05:00+27wnw22250 0.0 100716
08:00+32nw34200 0.0 1008599
11:00+38n56130 0.0 10071482
14:00+42n5690 0.0 10042775
17:00+42nw7680 0.0 10032942
20:00+36nnw914150 0.0 1005388
28 june, tue
tue2823:00+33nnw59190 0.0 1006189
02:00+31nnw34220 0.0 100633
05:00+28nnw22270 0.0 100718
08:00+33nnw46200 0.0 1007682
11:00+38nw66150 0.0 10062087
14:00+40nw88100 0.0 10042528
17:00+39nw88120 0.0 10042557
20:00+34nw58160 0.0 1006125
29 june, wed
wed2923:00+31wnw45200 0.0 100763
02:00+29wnw33230 0.0 100620
05:00+28nw33250 0.0 100719
08:00+33nnw34220 0.0 1007610
11:00+37wnw56160 0.0 10072165
14:00+40wnw77130 0.0 10042590
17:00+39nw88140 0.0 10042746
20:00+34nw510160 0.0 1006178
30 june, thu
thu3023:00+32nw47200 0.0 1007112
02:00+29nnw23240 0.0 100614
05:00+28nnw22280 0.0 100611
08:00+33n23230 0.0 1007565
11:00+38nw69150 0.0 10062002
14:00+41wnw89110 0.0 10042953
17:00+40nw89120 0.0 10042977
20:00+35wnw58180 0.0 1005105